GFSGL_sfc_rhum_102.txt.gz
RH
93 93 93 92 89 91 89 89 91 90 92 93 93 93 91 92 90 91 93 90 88 88 86 89 87 86 80 81 94 81 81 77 76 74 75 74 78 78 73 72 68 69 64
95 94 93 92 92 95 92 90 91 92 92 94 93 94 91 91 90 91 89 89 88 89 86 87 86 77 86 87 83 87 84 85 81 88 83 77 80 78 80 81 69 56 65
98 98 97 97 98 98 97 95 94 92 91 92 94 90 90 87 88 91 92 90 92 91 89 90 85 84 88 84 86 84 81 80 86 88 83 83 80 77 78 79 78 78 60
96 97 98 97 97 97 97 96 96 96 94 90 91 91 89 84 84 87 87 89 89 88 91 90 88 87 87 89 86 89 90 85 88 88 87 84 82 81 81 78 73 72 71
98 98 99 97 96 96 96 96 95 96 96 96 93 88 86 81 69 82 83 85 90 89 89 87 85 88 95 93 85 93 91 86 85 87 88 88 82 78 80 78 84 79 77
98 98 99 99 97 96 96 94 94 95 95 95 96 97 96 93 97 98 95 87 88 90 88 87 85 90 88 94 95 94 94 92 92 89 85 88 90 86 85 82 85 82 80
96 98 98 98 97 97 95 94 95 95 94 95 94 94 95 97 100 100 99 97 94 92 90 90 85 72 86 82 90 95 95 96 96 87 89 87 87 83 85 87 88 87 83
81 88 95 94 94 95 96 96 95 96 96 96 94 94 95 97 100 99 99 94 95 94 94 92 93 91 92 93 89 84 83 83 85 79 86 84 84 84 86 81 86 88 84
80 80 82 86 89 88 90 94 94 94 95 95 93 95 96 98 99 100 99 97 95 94 96 96 96 96 99 99 94 91 89 86 85 95 96 95 94 94 91 82 83 90 78
78 77 80 81 86 89 91 92 93 94 92 97 96 94 98 94 95 98 95 93 82 91 92 92 100 98 100 100 99 99 96 94 85 88 83 86 90 86 96 88 79 83 78
79 77 79 81 82 84 83 79 84 90 86 89 84 87 86 88 86 88 94 91 90 92 92 94 94 100 100 100 100 97 95 92 91 87 84 81 80 79 75 81 84 80 78
81 81 82 83 74 76 86 82 79 78 77 78 75 78 72 84 84 84 87 88 88 91 91 96 94 100 100 100 100 100 99 98 86 80 79 77 77 77 75 75 83 84 79
81 84 83 80 78 81 82 83 76 80 76 75 73 74 72 69 71 82 82 84 83 90 84 83 92 94 99 99 100 100 100 89 93 90 84 81 80 78 83 83 83 86 87
86 86 80 80 79 78 75 74 76 78 77 76 76 76 71 71 74 73 68 70 74 83 91 90 90 94 98 96 87 87 91 96 95 93 90 87 85 81 84 83 84 90 82
85 79 78 77 78 77 77 78 73 78 80 77 77 72 74 76 75 87 81 68 82 92 97 91 92 92 91 90 81 75 80 84 87 95 90 85 76 79 79 92 87 91 90
82 77 78 76 77 78 76 74 83 84 85 86 87 82 71 83 86 84 86 89 89 98 93 92 92 92 93 94 85 82 84 81 80 86 89 82 77 78 81 81 89 86 89
85 80 77 77 74 75 76 74 70 72 82 79 82 84 85 88 84 86 86 91 90 97 91 92 92 88 85 84 91 89 84 80 84 79 87 80 74 75 82 85 85 90 90
84 79 77 76 72 74 73 73 70 70 70 69 75 81 83 84 85 85 84 81 68 70 71 74 76 83 88 87 84 79 78 75 75 78 85 84 84 82 82 80 83 92 95
76 73 73 74 74 74 72 71 70 71 70 70 69 72 75 81 82 82 82 69 70 67 66 68 73 70 80 88 86 85 81 78 80 78 80 88 86 88 88 84 85 94 94
76 72 71 70 70 70 71 70 70 71 70 70 68 69 66 68 68 68 67 68 68 68 66 67 66 79 74 82 78 86 89 85 78 76 79 78 79 83 87 91 90 88 88
73 70 71 68 67 68 69 70 70 69 67 67 66 67 81 68 67 67 67 66 67 67 71 72 73 70 69 72 78 86 92 89 86 83 85 86 90 90 87 86 85 86 90
67 71 66 64 68 70 70 70 69 69 68 68 66 66 80 65 66 68 68 67 66 67 65 69 76 82 87 92 90 85 83 82 82 79 80 84 83 87 84 90 89 86 90
65 66 68 70 70 74 73 71 71 71 70 69 68 66 65 67 68 70 72 72 73 72 71 76 82 80 80 81 80 84 90 90 90 89 88 86 86 87 88 90 86 87 88
65 64 67 68 75 76 76 75 76 81 76 73 71 68 69 68 68 70 71 72 74 75 74 79 82 83 84 86 84 82 81 82 88 91 89 91 90 89 89 87 86 86 86
64 66 68 70 73 78 79 80 80 79 78 77 74 72 70 69 69 68 69 71 74 78 80 82 85 86 87 88 88 89 86 92 92 91 92 92 93 93 94 94 94 92 91
65 68 71 74 84 86 86 86 85 84 84 80 79 78 77 78 80 81 81 84 87 85 85 85 85 87 93 92 90 91 96 98 96 97 95 95 95 94 92 93 92 93 92

GFSGL_sfc_rhum_105.txt.gz
RH
66 72 76 75 70 73 74 76 74 73 75 75 74 75 76 76 75 77 77 74 75 73 71 72 71 73 56 54 58 58 56 56 51 42 51 52 66 63 58 57 48 46 39
82 72 70 71 74 75 75 75 77 77 75 78 77 78 74 73 72 78 72 71 74 72 70 72 69 59 73 70 59 71 61 64 61 71 62 55 66 67 67 69 51 42 51
80 91 79 80 78 83 79 78 79 77 76 75 80 77 69 73 78 77 75 73 75 74 70 73 68 69 79 68 71 64 55 60 63 64 63 57 60 57 63 59 63 62 44
94 94 94 88 82 79 83 83 79 79 78 78 75 76 74 71 69 69 70 74 70 65 73 72 71 67 75 74 66 75 76 83 78 78 59 56 56 60 61 56 53 47 50
98 96 97 97 87 80 82 81 81 81 80 80 79 77 77 77 66 69 67 67 69 69 68 71 71 73 89 85 75 83 76 81 67 55 55 53 53 52 58 53 55 50 51
97 98 96 95 88 87 82 82 82 81 81 79 79 81 86 80 99 99 91 72 74 75 74 73 70 84 84 95 95 95 91 88 88 88 76 64 73 66 55 56 58 59 58
98 98 98 98 96 91 83 82 82 82 80 82 79 78 84 91 99 99 98 74 77 77 79 77 77 58 78 72 84 92 93 97 95 82 82 78 78 70 72 76 70 68 64
91 93 94 95 92 86 84 91 86 80 79 80 81 83 83 78 97 99 99 78 81 86 86 86 86 91 96 89 80 73 69 69 71 66 70 72 72 70 75 73 79 80 68
82 83 84 85 80 76 78 85 89 86 86 89 90 86 81 81 91 95 81 66 70 74 77 85 84 83 97 98 81 86 82 74 76 94 97 96 96 96 90 68 65 73 61
76 77 78 77 74 75 77 81 82 86 86 89 84 73 80 70 86 87 78 52 62 60 66 70 98 84 96 99 83 82 80 80 83 77 71 74 84 75 96 82 67 78 81
71 73 78 74 78 76 76 72 77 73 78 83 79 84 76 80 79 85 85 59 57 50 52 53 52 90 93 100 100 76 77 85 74 64 57 53 53 53 51 57 71 74 71
70 71 74 73 61 66 77 77 76 71 73 72 71 62 68 66 80 81 83 82 78 61 59 51 57 94 93 100 84 99 100 93 56 54 52 51 52 52 52 57 69 70 68
71 71 72 71 69 70 70 71 61 67 64 65 56 56 58 59 58 75 74 75 74 59 66 80 90 89 86 73 95 100 94 59 60 68 80 81 72 70 75 74 73 75 73
70 70 64 64 67 63 54 55 55 56 57 55 53 59 58 58 54 52 52 50 60 55 64 58 76 84 90 80 63 55 52 58 65 63 62 61 56 51 51 52 56 53 57
60 57 55 52 56 60 60 56 57 65 64 56 56 55 53 56 58 76 76 59 59 70 88 54 50 52 53 55 56 55 54 57 57 57 56 57 55 53 51 50 49 49 51
51 46 45 44 45 47 46 52 85 79 84 88 86 69 50 75 85 87 87 88 90 92 54 53 54 54 60 67 67 70 59 65 59 60 56 56 56 56 55 53 50 50 53
53 54 47 42 39 43 42 38 42 62 80 83 84 84 83 87 86 86 86 88 81 71 49 50 53 55 57 58 58 55 65 64 70 58 60 60 58 58 60 57 54 52 52
56 67 40 39 39 40 40 40 37 38 40 44 73 71 80 83 84 84 82 70 44 47 44 50 56 54 54 52 54 58 64 66 72 73 72 69 67 66 64 65 64 64 59
46 40 40 39 38 42 39 38 36 38 39 40 39 56 62 79 78 79 74 46 46 44 45 46 47 48 51 54 55 58 59 56 59 60 61 70 70 71 73 72 73 86 84
46 55 47 39 40 40 39 38 38 39 39 40 40 42 43 47 44 46 48 49 47 45 46 49 50 50 52 56 55 54 55 64 69 70 72 71 64 67 77 79 78 81 80
40 45 46 39 38 39 40 39 38 38 39 40 40 52 80 47 45 46 47 47 48 49 50 51 55 54 54 57 59 58 55 54 58 61 64 62 66 61 68 73 74 73 77
39 41 40 38 40 45 43 43 41 41 41 42 40 48 74 41 43 46 48 49 50 55 56 64 66 64 63 74 74 69 70 71 69 66 68 73 74 74 75 75 76 79 81
40 40 40 40 42 53 50 44 42 43 43 43 42 41 40 40 42 45 50 48 52 57 61 65 71 67 65 64 64 71 82 83 84 83 85 87 88 84 78 78 78 81 82
43 42 40 40 47 45 45 48 48 63 48 47 46 46 47 46 43 46 46 47 48 50 53 59 65 72 78 76 71 67 70 80 87 86 83 89 89 86 83 82 81 82 83
42 44 44 45 44 47 46 47 48 49 50 51 50 50 48 49 46 45 46 48 50 52 58 64 61 67 72 76 79 78 84 94 87 87 88 88 93 94 94 92 91 88 88
59 50 47 45 47 47 47 48 49 50 51 51 52 54 55 56 52 50 51 52 54 55 66 68 68 73 74 78 79 88 95 96 93 97 94 95 95 94 94 94 93 92 90

GFSGL_sfc_rhum_111.txt.gz
RH
47 49 49 46 46 51 53 54 55 55 58 60 59 57 57 57 56 62 68 66 57 58 56 56 56 61 45 36 35 33 34 34 39 36 34 38 58 53 47 48 42 45 32
57 57 51 49 48 45 50 52 53 60 59 60 59 62 60 57 69 61 58 56 60 58 54 55 52 40 61 65 42 61 48 53 43 67 52 42 52 52 52 60 40 30 33
58 51 50 62 51 49 48 49 52 57 59 52 58 60 62 58 59 62 61 59 58 59 61 57 52 52 60 57 60 53 43 43 54 46 50 37 38 36 44 52 53 49 27
79 82 68 66 53 49 52 51 50 56 59 58 57 57 56 56 55 56 57 57 56 50 50 51 54 53 58 61 57 67 60 62 54 47 43 38 35 53 55 40 38 33 35
87 90 87 77 73 60 62 59 55 55 56 55 55 55 55 53 60 73 55 54 57 54 51 51 51 60 83 81 55 75 79 66 51 51 44 41 38 48 50 41 41 40 47
87 89 88 82 88 78 81 83 70 59 60 58 55 54 56 87 97 98 97 57 53 60 58 55 49 74 70 89 92 93 91 81 82 77 56 56 74 61 52 52 57 57 60
79 85 94 92 95 95 92 80 78 76 68 73 74 84 84 81 90 91 96 67 61 66 74 75 68 72 72 67 79 93 95 96 96 90 82 75 81 86 89 85 81 73 67
86 87 92 93 96 98 98 98 97 92 85 89 83 79 70 66 86 88 92 80 88 81 78 76 76 70 71 72 67 62 61 60 68 74 78 78 78 74 78 75 83 88 68
96 96 92 92 89 84 92 97 96 96 97 97 88 76 69 68 82 84 85 66 71 71 61 60 58 59 92 93 61 63 64 62 75 85 84 84 84 86 87 70 68 94 92
88 89 92 89 85 82 78 81 87 83 78 72 72 72 74 62 80 77 74 45 57 52 64 62 85 72 89 91 68 60 60 54 55 57 56 59 79 75 90 85 94 88 82
92 84 79 76 81 82 84 88 82 80 80 76 77 78 71 69 62 78 77 52 50 49 40 43 49 82 86 88 93 59 59 71 65 56 41 40 56 50 55 61 65 57 55
86 86 83 78 62 65 83 82 79 78 82 84 79 60 56 57 71 72 73 72 69 61 62 42 50 79 83 85 74 82 82 80 42 37 37 39 40 40 40 46 62 60 50
86 86 84 82 73 75 79 81 74 80 67 60 51 47 48 43 47 70 67 64 63 61 52 58 76 78 79 67 78 75 80 40 44 44 41 41 38 37 53 50 52 62 58
82 81 79 77 70 55 44 43 46 45 47 50 50 48 45 40 35 34 33 36 51 47 58 45 52 65 67 69 56 45 41 45 44 45 52 48 41 40 37 36 38 38 38
65 55 54 51 50 60 56 52 45 54 59 41 41 40 43 35 44 67 66 43 42 53 68 39 44 44 42 42 43 45 44 44 46 45 41 41 40 39 38 38 39 37 39
43 37 33 36 38 41 43 44 79 76 80 82 82 56 40 70 79 84 86 86 84 85 41 35 38 37 38 38 39 44 48 52 47 46 43 42 43 41 41 41 39 40 42
39 43 28 32 28 34 33 32 34 53 78 80 81 79 75 79 77 80 79 80 76 71 29 37 38 36 39 39 36 37 39 41 54 44 50 48 50 49 51 46 42 41 42
44 59 28 26 25 27 28 28 26 31 33 36 71 62 74 74 73 77 80 76 33 36 28 31 32 34 35 38 38 38 40 40 40 41 44 44 45 47 47 49 48 50 49
41 29 28 24 25 29 26 25 23 26 28 31 37 62 66 72 73 78 75 32 30 29 30 32 34 34 37 40 41 42 46 40 41 42 41 42 43 43 50 49 48 62 61
43 55 42 26 27 26 25 24 24 26 27 27 26 26 30 46 36 33 35 35 32 30 32 34 36 38 41 45 45 45 43 42 42 41 42 43 43 45 45 47 47 50 52
29 34 49 31 26 24 25 24 24 24 25 28 26 36 74 37 28 30 29 32 32 32 37 38 42 42 40 43 46 44 40 40 42 45 45 47 49 51 51 50 48 48 48
28 31 29 27 25 29 31 26 24 24 24 25 25 34 63 37 25 28 32 31 31 36 34 42 40 40 40 46 47 45 45 45 46 49 52 55 56 54 53 53 52 51 51
25 26 29 28 27 38 31 26 25 25 24 25 24 26 30 27 26 28 31 30 33 34 35 37 39 39 40 40 43 47 50 51 53 57 63 67 65 62 59 60 59 60 60
30 28 28 29 31 29 30 30 28 36 27 25 27 28 30 29 29 30 32 30 32 32 33 35 36 38 41 41 39 39 41 47 54 57 62 68 71 75 72 69 69 68 67
39 37 32 32 31 32 32 30 30 30 29 30 28 28 28 30 32 31 30 29 31 33 34 34 34 36 38 42 45 44 85 90 71 81 70 71 72 71 68 70 72 74 78
45 46 60 46 46 42 34 33 32 31 31 31 32 33 33 33 32 32 33 34 34 34 36 37 36 41 43 40 44 80 90 89 75 94 75 68 70 71 69 74 76 80 86

GFSGL_sfc_rhum_114.txt.gz
RH
57 62 64 61 63 69 71 73 78 89 79 86 73 68 74 74 74 77 78 78 75 77 76 75 72 73 75 71 70 69 67 69 76 68 67 65 71 71 66 67 69 65 60
62 69 63 63 63 62 67 68 76 81 78 81 78 77 72 73 76 77 77 70 73 71 72 74 71 55 77 80 78 84 76 74 81 83 78 72 73 71 75 77 61 41 57
81 65 74 76 66 64 67 67 70 77 79 69 77 78 80 78 80 82 80 76 74 72 74 77 72 73 78 81 83 84 75 73 77 81 80 73 67 64 60 71 65 71 42
75 80 79 83 77 75 70 70 68 74 78 80 79 77 79 76 77 79 77 80 77 71 75 66 66 72 76 80 76 85 82 82 79 78 76 62 71 69 74 75 70 70 65
88 91 87 90 93 95 89 77 70 73 71 75 78 77 74 87 90 98 96 88 78 73 70 70 73 86 83 83 79 87 90 88 90 79 77 72 76 75 78 76 77 74 74
91 83 77 82 85 94 94 87 82 77 77 76 75 79 90 80 93 94 96 91 83 97 79 79 92 90 86 94 93 90 96 94 93 96 82 83 85 87 84 97 95 88 88
81 78 86 89 93 98 99 98 99 86 84 88 91 89 91 84 86 88 89 74 87 92 94 93 92 81 76 77 80 81 89 95 98 95 95 95 94 95 94 91 87 90 88
80 86 89 89 93 97 97 98 99 98 97 96 92 87 80 67 84 88 93 88 85 83 82 81 80 77 82 80 79 74 76 77 87 79 87 83 81 81 88 83 90 93 85
94 89 84 82 85 90 98 99 99 98 98 96 87 77 79 72 81 84 93 87 80 83 74 77 73 76 87 90 79 76 76 73 53 73 80 82 80 85 87 88 95 94 94
93 93 92 92 91 85 84 89 97 98 97 95 81 75 77 64 73 77 85 86 80 74 72 74 81 76 83 86 82 78 76 72 70 71 71 77 82 84 95 85 90 80 74
90 88 89 91 90 87 94 89 84 82 83 82 78 78 70 72 58 73 72 66 79 60 63 64 60 76 80 83 87 80 76 78 70 71 67 67 61 55 59 66 77 81 75
89 90 89 86 80 84 87 86 84 84 85 83 82 74 69 62 69 71 73 72 73 63 60 56 61 76 78 81 81 80 80 78 67 62 57 57 56 54 55 66 79 80 76
88 88 88 89 86 86 84 85 79 83 81 86 83 66 60 57 57 62 65 65 67 62 61 65 74 77 80 81 80 77 77 57 59 62 64 63 68 67 70 62 61 69 65
91 91 91 90 87 73 77 76 62 60 71 69 65 63 57 54 49 49 49 57 58 61 67 66 62 65 73 71 60 59 57 58 60 60 59 57 53 52 53 54 54 53 54
87 90 87 85 91 87 70 80 60 61 69 61 56 53 59 54 51 68 72 60 62 67 71 71 65 64 62 63 61 58 58 58 59 59 60 60 59 58 57 56 58 54 57
81 76 81 90 83 76 65 50 77 77 80 81 78 59 50 69 74 79 83 84 83 83 70 57 62 61 57 57 56 56 56 58 62 59 60 60 60 58 57 55 56 58 59
65 65 54 49 47 54 49 43 40 55 77 79 77 75 76 74 75 75 77 80 77 75 64 59 62 63 61 60 57 56 55 63 67 57 59 57 56 55 55 56 58 59 60
60 57 47 46 41 42 42 40 35 40 40 43 67 64 71 73 73 75 79 79 57 62 47 53 54 56 56 56 55 54 57 54 56 60 61 56 57 57 56 56 56 60 60
51 46 47 40 46 50 44 37 34 40 42 44 46 62 66 71 73 77 80 57 50 50 50 49 53 50 56 58 62 63 65 57 59 58 56 57 57 57 59 57 57 64 63
57 55 52 45 35 41 40 38 34 42 41 43 45 44 46 53 51 54 57 57 47 42 45 50 53 57 61 65 65 63 59 58 58 55 56 57 58 59 60 60 59 61 60
41 41 51 35 33 33 33 35 38 42 42 43 36 47 71 50 43 44 45 49 44 43 53 52 61 60 58 60 61 56 52 51 54 57 58 59 61 61 61 60 59 58 59
36 38 35 32 33 42 40 40 40 35 41 42 38 39 60 39 39 40 46 46 43 51 47 60 51 52 52 57 59 53 53 54 56 58 61 61 62 63 62 62 62 63 63
32 34 36 38 37 45 40 36 33 36 33 35 37 38 37 38 41 43 46 42 48 48 50 51 53 51 55 52 51 53 53 54 57 58 61 63 64 65 66 69 68 69 69
32 29 32 36 41 37 35 38 38 43 34 36 40 40 42 45 43 45 46 47 46 45 50 51 51 42 51 50 50 49 52 57 59 58 59 66 69 72 71 67 66 69 73
30 32 36 39 37 39 40 37 38 38 36 39 38 38 40 42 44 43 42 45 46 49 48 50 50 47 47 47 48 54 78 85 68 83 67 65 67 69 66 71 74 75 75
40 53 56 60 57 47 40 41 42 42 40 40 40 42 46 46 42 44 46 48 50 48 47 48 48 47 46 46 53 77 91 88 72 93 77 74 72 68 69 72 75 80 82